Szolnok, Hungary

3:49 AM CEST on April 28, 2017 (GMT +0200)
Szolnok

Weather History for LHSN - January, 2013

Change the Weather History Date:

Thursday, January 3, 2013

  Actual Average (LHBP) Record (LHBP)
Temperature  
Mean Temperature 30 °F -  
Max Temperature 41 °F 35 °F 53 °F (2003)
Min Temperature 19 °F 23 °F 8 °F (2002)
Degree Days  
Heating Degree Days 35    
Moisture  
Dew Point 29 °F    
Average Humidity 85    
Maximum Humidity 100    
Minimum Humidity 70    
Precipitation  
Precipitation 0.00 in - - ()
Sea Level Pressure  
Sea Level Pressure 30.42 in    
Wind  
Wind Speed 5 mph ()    
Max Wind Speed 18 mph    
Max Gust Speed 29 mph    
Visibility 3.9 miles    
Events Fog , Rain    
Averages and records for this station are not official NWS values.
T = Trace of Precipitation, MM = Missing Value Source: Averaged Metar Reports

Daily Weather History Graph

Daily Weather History Graph

Search for Another Location

Airport or City:

Trip Planner

Search our weather history database for the weather conditions in past years. The results will help you decide how hot, cold, wet, or windy it might be!

Date:

Astronomy

Jan. 03, 2013 Rise Set
Actual Time 7:25 AM CET 4:02 PM CET
Civil Twilight 6:49 AM CET 4:37 PM CET
Nautical Twilight 6:11 AM CET 5:16 PM CET
Astronomical Twilight 5:34 AM CET 5:53 PM CET
Moon 10:45 PM CET (1/3) 10:02 AM CET (1/3)
Length of Visible Light 9h 47m
Length of Day
8h 36m
Waning Gibbous, 68% of the Moon is Illuminated
Jan 3
Waning Gibbous
Jan 5
Last Quarter
Jan 11
New
Jan 19
First Quarter
Jan 27
Full

Hourly Weather History & Observations

Time (CET) Temp. Windchill Dew Point Humidity Pressure Visibility Wind Dir Wind Speed Gust Speed Precip Events Conditions
12:15 AM 30.2 °F - 28.4 °F 93% 30.39 in 3.1 mi WNW 2.2 mph - N/A   Scattered Clouds
12:45 AM 28.4 °F - 26.6 °F 93% 30.39 in 3.1 mi WNW 2.2 mph - N/A   Scattered Clouds
1:15 AM 28.4 °F - 28.4 °F 100% 30.42 in 3.1 mi West 2.2 mph - N/A   Scattered Clouds
1:45 AM 28.4 °F 23.4 °F 26.6 °F 93% 30.42 in 3.1 mi West 4.5 mph - N/A   Scattered Clouds
2:15 AM 26.6 °F - 26.6 °F 100% 30.45 in 3.1 mi WNW 2.2 mph - N/A   Partly Cloudy
2:45 AM 28.4 °F - 26.6 °F 93% 30.45 in 3.1 mi WNW 2.2 mph - N/A   Partly Cloudy
3:15 AM 28.4 °F 23.4 °F 26.6 °F 93% 30.45 in 3.1 mi West 4.5 mph - N/A   Partly Cloudy
3:45 AM 28.4 °F 23.4 °F 28.4 °F 100% 30.45 in 3.1 mi West 4.5 mph - N/A   Partly Cloudy
4:15 AM 28.4 °F 23.4 °F 26.6 °F 93% 30.45 in 3.1 mi WNW 4.5 mph - N/A   Partly Cloudy
4:45 AM 28.4 °F 23.4 °F 26.6 °F 93% 30.45 in 3.1 mi WNW 4.5 mph - N/A   Partly Cloudy
5:15 AM 26.6 °F - 24.8 °F 93% 30.45 in 1.9 mi Calm Calm - N/A   Partly Cloudy
5:45 AM - - - N/A% - 3.1 mi WSW 6.7 mph - N/A Fog Light Freezing Fog
6:15 AM 24.8 °F - 23.0 °F 93% 30.48 in 0.5 mi Calm Calm - N/A Fog Light Freezing Fog
6:45 AM 23.0 °F - 21.2 °F 93% 30.48 in 0.5 mi Calm Calm - N/A Fog Light Freezing Fog
7:04 AM 23.0 °F - 21.2 °F 93% 30.48 in 0.7 mi ESE 2.2 mph - N/A   Partly Cloudy
7:15 AM 19.4 °F - 17.6 °F 93% 30.48 in 0.9 mi SE 2.2 mph - N/A   Partly Cloudy
7:45 AM 21.2 °F - 19.4 °F 93% 30.51 in 0.9 mi Calm Calm - N/A   Partly Cloudy
8:15 AM 23.0 °F - 21.2 °F 93% 30.51 in 1.2 mi Calm Calm - N/A   Scattered Clouds
8:45 AM 24.8 °F - 24.8 °F 100% 30.51 in 1.2 mi Calm Calm - N/A   Scattered Clouds
9:15 AM 28.4 °F - 26.6 °F 93% 30.51 in 1.2 mi SSE 2.2 mph - N/A   Mostly Cloudy
9:45 AM 30.2 °F - 28.4 °F 93% 30.51 in 1.2 mi South 2.2 mph - N/A   Mostly Cloudy
10:15 AM 30.2 °F - 30.2 °F 100% 30.51 in 1.9 mi SW 2.2 mph - N/A   Mostly Cloudy
10:45 AM 32.0 °F - 30.2 °F 93% 30.51 in 1.9 mi SW 2.2 mph - N/A   Mostly Cloudy
11:45 AM - - - N/A% - 3.1 mi SW 6.7 mph - N/A   Overcast
12:15 PM 37.4 °F 32.2 °F 33.8 °F 87% 30.48 in 5.0 mi WSW 6.7 mph - N/A   Unknown
12:45 PM 41.0 °F 35.4 °F 32.0 °F 70% 30.45 in - WSW 8.9 mph - N/A   Clear
1:10 PM - - - N/A% - 5.0 mi WSW 8.9 mph - N/A   Overcast
1:15 PM 39.2 °F 33.1 °F 32.0 °F 75% 30.45 in - WSW 8.9 mph - N/A   Clear
1:45 PM 41.0 °F 35.4 °F 32.0 °F 70% 30.45 in - WSW 8.9 mph - N/A   Clear
2:15 PM 41.0 °F 34.4 °F 32.0 °F 70% 30.45 in - WSW 11.2 mph - N/A   Clear
2:45 PM - - - N/A% - 5.0 mi WSW 8.9 mph - N/A   Overcast
3:15 PM 39.2 °F 33.1 °F 32.0 °F 75% 30.42 in 5.0 mi SW 8.9 mph - N/A   Overcast
3:45 PM 39.2 °F 33.1 °F 32.0 °F 75% 30.42 in 5.0 mi SW 8.9 mph - N/A   Unknown
4:15 PM 39.2 °F 33.1 °F 32.0 °F 75% 30.42 in 5.0 mi SW 8.9 mph - N/A   Unknown
4:45 PM 37.4 °F 30.9 °F 32.0 °F 81% 30.39 in - SW 8.9 mph - N/A   Clear
5:15 PM 39.2 °F 32.2 °F 32.0 °F 75% 30.39 in - SW 11.2 mph - N/A   Clear
5:45 PM - - - N/A% - 6.2 mi SW 8.9 mph - N/A   Overcast
6:15 PM 39.2 °F 32.2 °F 32.0 °F 75% 30.39 in 6.2 mi SW 11.2 mph - N/A   Mostly Cloudy
6:45 PM 39.2 °F 32.2 °F 32.0 °F 75% 30.39 in 6.2 mi SW 11.2 mph - N/A   Mostly Cloudy
7:15 PM 39.2 °F 33.1 °F 32.0 °F 75% 30.36 in 6.2 mi SW 8.9 mph - N/A   Mostly Cloudy
7:45 PM 39.2 °F 32.2 °F 32.0 °F 75% 30.36 in 6.2 mi SW 11.2 mph - N/A   Mostly Cloudy
8:15 PM 39.2 °F 32.2 °F 32.0 °F 75% 30.36 in 6.2 mi WSW 11.2 mph - N/A   Mostly Cloudy
8:45 PM - - - N/A% - 6.2 mi WSW 11.2 mph - N/A   Scattered Clouds
9:15 PM 39.2 °F 31.3 °F 32.0 °F 75% 30.33 in 6.2 mi WSW 13.4 mph - N/A   Overcast
9:32 PM 39.2 °F 33.1 °F 32.0 °F 75% 30.33 in 6.2 mi SW 8.9 mph - N/A Rain Light Rain
9:45 PM 39.2 °F 32.2 °F 32.0 °F 75% 30.33 in 6.2 mi WSW 11.2 mph - N/A Rain Light Rain
10:15 PM 39.2 °F 32.2 °F 32.0 °F 75% 30.30 in 6.2 mi WSW 11.2 mph - N/A   Overcast
10:45 PM 39.2 °F 32.2 °F 32.0 °F 75% 30.30 in 6.2 mi WSW 11.2 mph 22.4 mph N/A   Overcast
11:15 PM 39.2 °F 30.6 °F 32.0 °F 75% 30.30 in 6.2 mi West 15.7 mph - N/A   Mostly Cloudy
11:28 PM 41.0 °F 32.3 °F 33.8 °F 76% 30.30 in 6.2 mi West 17.9 mph 29.1 mph N/A   Mostly Cloudy
11:45 PM - - - N/A% - 6.2 mi North - - N/A   Mostly Cloudy